Simultaneous Nadir Overpasses (SNOs) Predictions

Prediction of SNOs between FY3D and LANDSAT-8 Satellite Orbit:

Table of predicted SNOs for the next 14.0 days since TLE Epoch: 7/27/2024
Index Date (FY3D) Time (FY3D) Lat,Lon (FY3D) SZA (FY3D ) Date (LANDSAT-8) Time (LANDSAT-8) Lat,Lon (LANDSAT-8) SZA (LANDSAT-8 ) Distance(km) Time Diff (sec)
1 07/28/2024 16:49:26 74.59, -68.07 55.78 07/28/2024 16:49:55 74.57, -68.11 55.76 2.54 29
2 07/28/2024 17:40:09 -74.54, 99.38 124.27 07/28/2024 17:39:23 -74.54, 99.45 124.27 1.99 46
3 07/31/2024 08:16:02 -74.61,-119.71 123.57 07/31/2024 08:16:57 -74.63,-119.73 123.55 2.28 55
4 07/31/2024 09:06:47 74.53, 47.80 56.37 07/31/2024 09:06:24 74.56, 47.73 56.39 3.20 23
5 08/02/2024 23:42:43 74.80,-171.86 57.30 08/02/2024 23:43:55 74.71,-171.28 57.22 19.84 72
6 08/03/2024 00:33:23 -74.61, -3.99 122.88 08/03/2024 00:33:25 -74.58, -3.96 122.91 2.89 2
7 08/03/2024 01:24:05 74.39, 163.91 56.92 08/03/2024 01:22:53 74.46, 163.38 56.98 17.56 72
8 08/05/2024 16:00:01 74.62, -55.63 57.85 08/05/2024 16:00:24 74.63, -55.59 57.86 1.71 23
9 08/05/2024 16:50:44 -74.57, 111.83 122.20 08/05/2024 16:49:53 -74.56, 111.87 122.21 1.76 51
10 08/08/2024 07:26:37 -74.66,-107.34 121.37 08/08/2024 07:27:25 -74.65,-107.28 121.38 2.27 48
11 08/08/2024 08:17:22 74.59, 60.16 58.58 08/08/2024 08:16:52 74.57, 60.16 58.55 2.55 30



Historial Predications of SNOs between FY3D and LANDSAT-8
